Temperature
0 1 1 1 1 1 1 1 1 2 2 3 3 2 3 3 3 2 2 2 2 2 2 2 2 2 2 2 2 2 1 1 1 1 1 1 1 0 0 0 0 -0 -0 -0
-0 1 1 1 1 1 1 1 1 1 2 3 3 3 2 2 2 2 2 2 2 2 2 2 2 2 1 1 1 1 1 1 1 0 0 0 0 -0 -0 -0 -1 -1 -1 -1
-0 -0 1 1 1 1 1 1 1 1 2 2 1 1 2 2 2 2 2 2 2 2 1 1 1 1 1 1 1 0 0 0 0 -0 -0 -0 -0 -1 -1 -1 -1 -1 -1 -1
-1 -1 1 2 1 1 1 1 1 1 1 1 1 2 2 2 2 2 2 2 1 1 1 1 1 1 1 0 0 0 -0 -0 -0 -1 -1 -1 -1 -1 -1 -1 -2 -1 -1 -1
-1 -1 -0 1 1 1 1 1 0 0 0 1 1 1 1 2 2 2 2 1 1 1 1 0 0 0 0 -0 -0 -1 -1 -1 -1 -1 -1 -1 -1 -1 -2 -2 -2 -2 -2 -2
-2 -1 -0 1 1 1 1 0 1 0 -0 -0 -0 -1 -0 2 1 1 1 1 1 0 0 -0 -0 -0 -0 -1 -1 -1 -1 -1 -1 -2 -2 -2 -2 -2 -2 -2 -2 -2 -2 -2
-2 -1 -1 0 0 1 1 1 1 1 1 0 -1 -0 1 1 1 1 1 0 0 -0 -0 -0 -1 -1 -1 -1 -1 -1 -2 -2 -2 -2 -2 -2 -2 -2 -2 -3 -3 -3 -3 -3
-2 -2 -0 0 -0 -0 1 2 2 1 1 1 1 1 1 0 0 0 0 -0 -0 -1 -1 -1 -1 -1 -1 -2 -2 -2 -2 -2 -2 -2 -2 -3 -2 -3 -3 -3 -3 -3 -3 -3
-2 -0 0 1 1 2 2 1 1 1 1 1 0 0 0 -0 -0 -0 -1 -1 -1 -1 -1 -1 -2 -2 -2 -2 -2 -2 -2 -2 -2 -3 -3 -3 -3 -3 -3 -3 -3 -3 -4 -4
-3 -2 -1 1 1 2 1 1 1 1 1 0 0 -0 -0 -1 -1 -1 -1 -1 -2 -2 -2 -2 -2 -2 -2 -2 -2 -3 -3 -3 -3 -3 -3 -3 -3 -3 -3 -3 -4 -4 -4 -4
-3 -2 -1 0 1 1 1 1 1 0 0 -0 -0 -1 -1 -1 -1 -1 -2 -2 -2 -2 -2 -2 -3 -3 -3 -3 -3 -3 -3 -3 -3 -3 -3 -4 -3 -3 -4 -4 -4 -4 -4 -4
-1 -1 -1 0 1 1 1 0 0 0 -0 -0 -1 -1 -1 -2 -2 -2 -2 -2 -2 -3 -3 -3 -3 -3 -3 -3 -3 -3 -3 -3 -4 -4 -4 -4 -4 -4 -4 -4 -4 -4 -4 -4
1 1 1 1 1 0 0 -0 -0 -0 -1 -1 -1 -1 -2 -2 -2 -2 -2 -3 -3 -3 -3 -3 -3 -3 -3 -3 -3 -3 -4 -4 -4 -4 -4 -4 -4 -4 -4 -4 -4 -4 -4 -4
1 0 -0 -0 -0 -0 -0 -1 -1 -1 -1 -1 -2 -2 -2 -3 -3 -3 -3 -3 -3 -3 -3 -4 -4 -4 -4 -4 -4 -4 -4 -4 -4 -4 -4 -4 -4 -5 -5 -4 -4 -4 -4 -4
-0 -0 -0 -0 -1 -1 -1 -1 -1 -1 -1 -2 -2 -2 -3 -3 -3 -3 -3 -3 -3 -3 -4 -4 -4 -4 -4 -4 -4 -4 -4 -4 -4 -4 -5 -5 -5 -5 -5 -5 -5 -5 -5 -5
-1 -1 -1 -1 -1 -1 -2 -2 -2 -2 -2 -2 -2 -3 -3 -3 -4 -4 -4 -4 -4 -4 -4 -4 -4 -4 -4 -4 -4 -4 -4 -4 -4 -5 -5 -5 -5 -5 -5 -5 -5 -5 -5 -5
-2 -2 -2 -2 -2 -2 -2 -2 -2 -2 -2 -2 -3 -3 -3 -4 -4 -4 -4 -4 -4 -4 -4 -4 -4 -4 -5 -4 -4 -4 -4 -5 -5 -5 -5 -5 -5 -5 -5 -5 -5 -5 -5 -5
-1 -2 -2 -2 -2 -2 -2 -2 -2 -2 -2 -3 -3 -3 -4 -4 -4 -4 -4 -4 -4 -4 -4 -4 -4 -5 -5 -5 -5 -5 -5 -5 -5 -5 -5 -5 -5 -5 -5 -5 -6 -6 -6 -6
-2 -2 -2 -2 -2 -3 -3 -3 -3 -3 -3 -3 -3 -3 -4 -4 -4 -4 -4 -5 -5 -4 -4 -4 -5 -5 -5 -5 -5 -5 -5 -5 -5 -5 -5 -5 -5 -5 -6 -6 -6 -6 -6 -6
-2 -3 -3 -3 -3 -3 -3 -3 -3 -3 -3 -3 -4 -4 -4 -4 -4 -5 -5 -5 -5 -5 -5 -5 -5 -5 -5 -5 -5 -5 -5 -5 -5 -6 -6 -6 -6 -6 -6 -6 -6 -6 -6 -6
-3 -3 -3 -3 -3 -3 -3 -3 -3 -3 -4 -4 -4 -4 -4 -4 -5 -5 -5 -5 -5 -5 -5 -5 -5 -5 -5 -5 -5 -5 -5 -5 -6 -6 -6 -6 -6 -6 -6 -6 -6 -6 -6 -6
-4 -4 -4 -4 -4 -4 -4 -4 -4 -4 -4 -4 -4 -4 -5 -5 -5 -5 -5 -5 -5 -5 -5 -5 -5 -5 -5 -5 -5 -5 -5 -6 -6 -6 -6 -6 -6 -6 -6 -6 -6 -6 -6 -6
-4 -4 -4 -4 -4 -4 -4 -4 -4 -5 -5 -5 -5 -5 -5 -5 -5 -5 -5 -5 -5 -5 -5 -5 -5 -5 -5 -5 -5 -6 -6 -6 -6 -6 -6 -6 -6 -6 -6 -6 -6 -6 -6 -6
-4 -5 -5 -5 -5 -5 -5 -5 -5 -5 -5 -5 -5 -5 -5 -5 -5 -5 -5 -5 -5 -5 -5 -5 -5 -6 -6 -6 -6 -6 -6 -6 -6 -6 -6 -6 -6 -6 -6 -6 -6 -6 -6 -6
-5 -5 -5 -5 -5 -5 -5 -5 -5 -5 -5 -5 -5 -5 -6 -5 -5 -5 -6 -6 -6 -6 -6 -6 -6 -6 -6 -6 -6 -6 -6 -6 -6 -6 -6 -6 -6 -6 -6 -6 -6 -6 -6 -6
-5 -5 -5 -5 -6 -6 -6 -6 -6 -6 -6 -6 -6 -6 -6 -6 -6 -6 -6 -6 -6 -6 -6 -6 -6 -6 -6 -6 -6 -6 -6 -6 -6 -6 -6 -6 -6 -6 -6 -6 -6 -6 -6 -6
-6 -6 -6 -6 -6 -6 -6 -6 -6 -6 -6 -6 -6 -6 -6 -6 -6 -6 -6 -6 -6 -6 -6 -6 -6 -6 -6 -6 -6 -6 -6 -6 -6 -6 -6 -6 -6 -6 -6 -6 -6 -6 -6 -6
Wind_Speed
8 6 5 7 9 8 10 9 9 9 9 12 9 7 6 5 4 4 4 4 4 4 3 2 1 1 1 1 1 1 1 2 3 3 3 3 3 3 3 4 4 4 4 4
5 6 6 9 11 12 12 10 11 11 13 10 7 4 4 5 4 5 5 5 5 4 3 3 2 2 1 1 2 1 2 2 2 2 2 3 3 3 3 3 3 3 4 4
5 5 5 8 9 10 7 8 9 12 11 5 4 5 6 6 6 6 6 6 5 5 4 3 3 3 2 2 2 2 2 2 3 3 3 3 3 3 3 3 3 3 4 4
2 2 7 7 3 6 7 7 8 7 6 5 6 5 5 5 5 6 6 5 4 4 3 2 2 2 2 1 1 2 2 3 3 3 3 3 3 3 3 3 3 3 4 4
2 4 8 8 4 4 5 6 6 8 7 5 2 3 4 3 4 5 5 4 4 3 3 2 2 2 1 1 2 2 3 3 3 3 4 4 4 4 3 3 3 3 3 4
3 3 6 6 3 2 2 5 5 5 5 3 0 2 5 3 3 3 3 2 2 1 1 1 2 1 1 2 2 3 4 4 3 3 4 4 4 4 3 3 4 3 3 4
6 6 8 7 3 3 3 6 3 4 4 4 4 5 5 3 3 3 3 2 1 1 1 2 1 1 1 2 3 4 4 3 3 3 4 4 4 3 3 3 3 3 4 4
6 6 9 4 5 6 7 3 2 3 3 4 5 5 4 3 3 3 2 2 1 1 2 2 1 1 2 3 4 3 3 3 3 3 3 3 3 3 3 3 3 3 3 3
9 9 5 5 6 5 3 3 4 3 4 3 4 4 4 4 3 3 2 2 2 1 2 2 2 2 3 4 3 2 2 3 3 3 3 3 3 3 3 3 3 2 2 2
5 8 6 6 5 4 4 4 4 4 4 4 4 5 5 4 4 3 2 2 2 1 2 3 3 2 3 3 2 2 3 3 3 2 2 2 2 2 2 2 2 2 2 2
6 7 5 6 6 5 4 3 2 3 3 4 4 5 5 4 4 3 3 2 2 2 2 3 3 3 3 3 2 2 3 3 3 2 2 2 2 2 2 3 3 3 3 3
8 7 6 6 5 4 4 4 4 3 4 3 3 4 4 4 3 3 3 2 2 2 3 3 3 4 3 3 2 2 2 2 2 2 1 1 1 1 2 2 2 3 3 3
7 5 5 5 3 3 4 4 4 4 4 3 3 3 3 3 3 2 2 2 3 3 3 3 3 4 4 3 2 2 2 2 2 2 1 1 1 1 1 2 2 2 2 3
5 3 3 4 4 3 3 3 2 2 2 2 2 2 2 3 2 2 3 3 3 3 3 3 3 4 3 3 2 2 2 2 2 1 1 1 1 1 1 1 1 2 2 2
5 5 5 4 3 2 2 1 1 2 2 2 2 2 2 3 3 3 3 3 2 3 3 3 3 4 3 2 2 2 2 1 1 1 1 1 1 1 1 1 1 1 2 2
3 2 2 3 3 3 2 2 3 3 3 3 3 3 3 3 3 3 3 2 3 4 4 4 4 4 3 2 2 1 2 2 1 1 1 1 0 0 0 0 1 1 1 1
3 3 3 4 4 4 4 5 5 5 4 4 4 3 2 2 2 3 3 3 3 4 4 4 5 4 3 2 2 1 1 2 2 1 1 1 1 1 1 0 1 2 2 2
6 6 5 5 5 5 4 4 4 4 4 4 3 2 3 3 4 4 4 3 3 3 4 4 3 3 2 2 2 1 1 1 1 1 1 1 1 1 1 1 1 2 2 2
4 5 5 4 4 4 4 4 4 4 3 3 3 4 4 4 4 4 3 3 3 4 4 3 4 2 2 3 2 2 2 2 1 1 1 1 1 1 1 1 1 1 2 1
3 2 2 2 2 3 3 3 3 3 3 3 3 3 4 4 4 4 4 4 5 4 4 3 3 2 2 3 3 2 2 2 2 1 1 1 1 1 1 1 1 1 1 1
3 2 2 2 2 3 3 3 3 4 3 3 4 5 5 4 4 3 3 4 4 3 3 4 2 2 2 3 3 2 2 2 2 1 1 1 1 1 1 1 1 1 1 1
3 2 3 2 2 3 3 3 3 3 3 3 4 4 4 4 3 3 4 4 4 3 2 2 2 3 4 3 2 2 2 2 2 2 1 1 1 1 1 1 1 1 1 1
3 3 3 3 3 3 3 3 3 3 4 4 4 4 4 4 3 3 4 3 2 3 2 2 3 5 5 3 2 2 2 2 2 2 2 2 2 1 1 1 1 1 1 1
3 3 3 2 2 2 3 3 3 2 3 3 3 4 3 3 2 3 3 3 3 3 2 3 4 4 4 2 2 2 2 2 2 2 2 1 1 1 1 1 1 1 1 1
3 2 2 2 3 3 3 2 2 2 1 2 2 3 3 3 3 2 1 2 3 2 1 3 4 4 2 2 2 2 2 2 2 2 2 2 2 1 1 1 1 1 1 1
3 3 3 3 3 3 2 2 2 2 1 1 2 2 1 1 2 1 1 1 2 2 1 1 2 2 2 2 2 2 1 1 1 1 1 1 2 2 1 1 2 2 2 2
2 2 1 2 2 2 2 2 2 2 2 2 2 2 1 1 1 1 1 1 1 1 1 1 2 2 2 2 2 1 1 1 1 1 1 1 1 2 2 2 2 1 1 2
Wind_Direction
254 257 244 244 241 220 213 212 219 242 246 263 264 254 252 251 256 264 266 261 245 242 244 241 251 266 243 244 241 221 214 228 243 253 258 256 256 259 257 251 247 239 238 244
276 266 254 260 252 234 230 227 235 253 265 264 264 251 249 248 246 254 255 256 248 246 239 235 239 247 249 249 249 223 223 241 255 256 258 260 258 260 262 259 255 243 237 239
268 297 316 267 236 216 215 212 206 233 248 258 268 259 247 244 236 238 249 256 247 240 233 236 238 232 232 238 237 229 237 252 256 255 256 259 261 261 258 258 254 252 244 240
261 346 247 248 231 207 217 239 225 238 254 248 247 260 264 240 227 245 252 251 248 237 242 249 246 245 235 250 253 245 249 260 257 253 258 258 249 250 253 250 250 252 251 242
203 249 274 291 264 193 204 265 239 231 251 261 268 312 294 253 235 239 244 245 239 230 232 237 235 221 204 262 272 274 269 268 267 258 258 257 248 246 246 244 253 252 254 248
188 221 247 253 257 198 122 282 254 211 229 240 313 293 278 286 282 271 264 252 234 233 226 237 253 203 194 257 268 270 272 272 273 267 260 254 247 246 245 239 247 255 263 255
210 235 261 256 233 127 169 253 251 203 221 213 223 240 268 296 295 277 269 261 239 213 234 250 256 202 232 261 264 270 276 277 282 281 266 259 249 241 241 245 251 258 265 265
185 216 252 225 148 187 225 248 233 228 229 230 248 265 277 282 281 275 261 264 243 231 272 278 252 209 244 262 272 280 275 277 280 283 272 260 247 241 237 235 243 250 256 266
197 218 243 191 203 230 220 231 247 237 234 229 249 258 265 267 268 265 250 262 262 237 281 299 283 227 242 267 277 283 278 278 281 283 277 262 245 246 238 226 224 235 242 261
240 259 253 248 254 255 234 228 239 237 235 228 243 254 260 263 270 262 258 261 266 260 278 295 298 279 259 271 277 272 272 280 281 275 280 278 258 242 231 221 223 234 243 253
244 265 283 265 243 239 234 230 239 253 242 236 243 259 254 257 260 253 262 267 259 254 263 279 291 291 287 282 275 267 270 278 282 276 281 281 272 252 244 237 227 228 234 235
228 226 213 246 241 219 218 235 242 254 271 260 234 246 256 255 252 250 258 263 261 267 267 281 288 290 293 289 269 253 267 276 274 271 276 273 271 309 301 275 273 265 261 263
226 230 225 251 248 230 229 242 250 245 240 252 254 241 242 251 251 246 253 251 250 257 264 275 283 288 292 293 273 251 252 264 269 264 254 257 252 258 310 337 334 319 308 297
229 209 239 240 241 246 239 245 249 253 252 244 247 246 243 251 253 248 252 255 254 256 260 264 271 279 287 288 274 262 253 256 258 251 244 243 238 242 247 282 319 325 326 326
242 219 222 235 237 245 238 228 235 272 269 276 256 244 245 247 253 259 262 259 255 255 258 262 269 280 291 283 266 256 247 256 250 240 245 247 235 233 246 255 283 307 321 322
253 234 206 208 228 239 233 223 228 248 249 252 260 262 258 253 260 267 263 244 237 253 260 260 266 273 278 267 257 247 239 244 242 226 250 254 228 220 257 279 307 311 304 302
199 216 220 233 238 244 238 230 225 234 237 243 252 261 263 262 266 271 273 263 250 253 256 253 261 268 261 241 227 235 237 236 233 239 229 230 226 226 241 262 284 295 294 294
216 213 210 216 226 236 240 235 230 231 235 242 244 241 240 241 251 262 269 277 277 275 266 253 251 256 242 222 211 220 220 213 206 211 211 212 214 222 229 244 268 287 301 315
210 208 216 222 220 218 226 234 236 236 237 227 225 235 245 247 249 256 261 260 261 267 269 254 245 246 234 219 205 201 203 202 206 209 202 213 232 227 236 248 261 276 288 300
209 203 206 224 223 215 227 237 237 245 245 225 226 242 255 258 251 251 253 258 256 253 251 249 239 233 227 214 201 193 194 200 202 193 186 195 216 244 252 255 257 265 274 278
223 219 216 228 252 250 237 230 228 242 249 230 226 237 248 259 252 244 247 267 270 254 245 237 228 220 214 200 193 186 189 194 193 190 193 204 221 235 251 260 269 269 268 278
233 227 233 237 245 265 265 247 233 236 245 247 245 239 240 253 256 257 256 253 258 255 246 226 218 211 197 188 181 183 187 186 188 186 188 196 206 220 233 237 259 275 276 274
238 235 235 239 243 256 276 266 244 235 236 239 239 236 237 245 242 243 268 264 244 241 232 218 210 201 187 173 174 177 175 179 190 194 194 194 204 216 222 229 249 263 267 276
234 237 242 245 234 243 263 270 268 255 246 248 246 240 234 245 266 257 246 248 247 242 224 214 208 196 176 161 164 170 177 183 188 191 193 197 204 212 219 225 244 262 263 269
227 231 232 227 235 244 246 252 272 278 271 270 266 259 248 235 235 247 237 231 229 231 215 202 191 182 160 153 164 173 181 189 189 187 192 197 204 208 217 223 231 246 252 259
234 237 240 242 242 240 230 224 237 250 251 269 284 282 268 242 219 217 215 216 208 200 181 165 161 160 152 160 165 173 184 198 204 195 194 201 203 207 219 233 237 246 251 256
238 240 248 263 257 225 205 210 227 242 238 231 257 276 263 224 189 171 163 156 151 145 141 141 140 145 153 157 158 163 169 177 187 195 202 208 212 216 222 233 248 251 249 251
Height
1489 1486 1486 1484 1483 1484 1485 1484 1484 1475 1472 1463 1461 1461 1460 1460 1459 1458 1457 1456 1455 1455 1455 1454 1454 1454 1453 1453 1452 1452 1451 1451 1451 1450 1450 1450 1449 1448 1448 1447 1447 1446 1446 1446
1488 1482 1482 1479 1475 1475 1476 1475 1475 1471 1466 1459 1458 1458 1457 1457 1456 1455 1454 1453 1453 1453 1452 1452 1452 1451 1451 1450 1449 1449 1448 1447 1447 1447 1446 1446 1445 1444 1443 1442 1442 1442 1442 1441
1489 1484 1480 1476 1467 1467 1467 1465 1466 1464 1459 1456 1456 1455 1454 1453 1453 1452 1451 1451 1450 1450 1449 1449 1449 1449 1448 1447 1446 1446 1445 1444 1444 1443 1442 1442 1441 1440 1439 1438 1438 1438 1437 1437
1490 1488 1482 1464 1459 1459 1460 1458 1458 1456 1454 1453 1453 1452 1451 1450 1450 1449 1449 1448 1448 1447 1447 1446 1446 1446 1445 1444 1443 1442 1442 1441 1440 1439 1438 1437 1437 1436 1435 1434 1434 1433 1433 1433
1489 1487 1476 1463 1457 1457 1459 1456 1453 1453 1451 1451 1450 1449 1448 1448 1447 1446 1446 1445 1445 1444 1444 1443 1443 1442 1441 1441 1440 1439 1438 1437 1436 1435 1434 1433 1433 1432 1431 1430 1430 1429 1429 1428
1486 1483 1476 1460 1455 1453 1456 1457 1449 1448 1449 1449 1449 1451 1447 1445 1445 1444 1443 1443 1442 1441 1441 1441 1440 1439 1438 1437 1437 1436 1435 1434 1433 1431 1430 1429 1429 1428 1427 1427 1426 1425 1425 1425
1481 1480 1468 1455 1452 1453 1460 1454 1446 1445 1446 1446 1447 1446 1444 1442 1442 1441 1440 1440 1439 1439 1438 1438 1437 1436 1435 1434 1433 1433 1431 1430 1429 1428 1427 1426 1425 1424 1423 1422 1422 1421 1421 1421
1477 1477 1465 1449 1451 1453 1449 1445 1444 1444 1444 1443 1443 1442 1441 1440 1439 1438 1437 1437 1436 1436 1435 1435 1434 1433 1432 1431 1430 1429 1428 1427 1425 1424 1423 1422 1421 1420 1419 1419 1418 1418 1418 1417
1461 1456 1447 1445 1444 1443 1443 1442 1442 1441 1441 1441 1440 1439 1438 1437 1436 1435 1435 1434 1434 1433 1432 1431 1431 1430 1429 1428 1427 1425 1424 1423 1422 1421 1420 1419 1417 1416 1416 1416 1415 1415 1415 1414
1454 1446 1443 1442 1441 1441 1441 1440 1439 1439 1438 1438 1437 1436 1435 1434 1433 1433 1432 1431 1431 1430 1429 1428 1428 1427 1426 1424 1423 1422 1421 1419 1419 1418 1416 1415 1414 1413 1413 1413 1412 1412 1412 1412
1448 1442 1440 1438 1437 1437 1437 1437 1437 1436 1436 1435 1434 1433 1432 1431 1431 1430 1429 1429 1428 1427 1426 1425 1424 1423 1422 1421 1420 1419 1418 1417 1416 1414 1413 1412 1412 1411 1410 1410 1410 1410 1410 1409
1439 1435 1436 1434 1433 1434 1434 1433 1433 1433 1432 1432 1431 1430 1429 1428 1428 1427 1426 1425 1425 1424 1423 1422 1421 1420 1419 1418 1417 1416 1415 1414 1413 1412 1411 1410 1409 1409 1408 1408 1408 1408 1408 1408
1430 1430 1431 1430 1430 1430 1430 1430 1430 1429 1429 1428 1428 1427 1426 1425 1425 1424 1423 1422 1421 1421 1420 1419 1418 1417 1416 1415 1415 1414 1413 1412 1411 1410 1409 1408 1407 1407 1406 1406 1406 1406 1406 1406
1426 1427 1427 1427 1427 1427 1427 1427 1426 1426 1426 1425 1424 1424 1423 1422 1421 1421 1420 1419 1418 1418 1417 1416 1415 1415 1414 1413 1412 1411 1411 1410 1409 1408 1407 1407 1406 1405 1405 1404 1404 1404 1405 1404
1422 1423 1423 1423 1424 1424 1424 1423 1423 1423 1422 1422 1421 1420 1420 1419 1418 1417 1417 1416 1415 1414 1414 1413 1412 1412 1411 1410 1410 1409 1409 1408 1407 1406 1406 1405 1405 1404 1404 1404 1404 1403 1403 1403
1418 1419 1420 1420 1420 1420 1420 1420 1420 1419 1419 1419 1418 1417 1417 1416 1415 1414 1413 1413 1412 1411 1410 1410 1409 1409 1409 1408 1408 1407 1407 1406 1406 1405 1404 1404 1404 1403 1403 1403 1403 1402 1402 1402
1415 1415 1416 1416 1416 1417 1417 1417 1417 1416 1416 1415 1415 1414 1413 1413 1412 1411 1410 1409 1409 1408 1407 1407 1406 1406 1406 1406 1406 1405 1405 1404 1404 1403 1403 1403 1403 1403 1402 1402 1402 1401 1401 1401
1412 1412 1413 1413 1413 1413 1413 1413 1413 1413 1412 1412 1411 1411 1410 1409 1408 1407 1407 1406 1405 1405 1404 1404 1404 1404 1403 1404 1403 1403 1403 1402 1402 1402 1402 1402 1402 1402 1402 1401 1401 1401 1400 1400
1408 1409 1410 1410 1410 1410 1409 1409 1409 1409 1409 1408 1408 1407 1406 1406 1405 1404 1403 1403 1402 1401 1401 1401 1401 1401 1401 1401 1401 1401 1401 1401 1401 1401 1401 1401 1401 1400 1400 1400 1400 1400 1399 1399
1405 1406 1406 1406 1406 1406 1406 1406 1406 1405 1405 1405 1404 1403 1403 1402 1402 1401 1400 1399 1399 1398 1398 1398 1398 1398 1398 1399 1399 1399 1399 1399 1399 1399 1400 1400 1399 1399 1399 1399 1399 1398 1398 1398
1402 1403 1403 1403 1403 1403 1403 1402 1402 1401 1401 1401 1401 1400 1399 1399 1398 1397 1396 1396 1395 1395 1395 1395 1395 1395 1396 1396 1397 1397 1397 1397 1398 1398 1398 1398 1398 1398 1398 1398 1398 1397 1397 1397
1399 1400 1400 1400 1399 1399 1399 1399 1398 1398 1397 1397 1397 1396 1396 1395 1395 1394 1394 1393 1393 1393 1392 1392 1392 1393 1394 1394 1395 1395 1396 1396 1397 1397 1397 1397 1397 1397 1397 1397 1397 1396 1396 1396
1397 1397 1397 1396 1396 1396 1395 1395 1395 1394 1394 1393 1393 1393 1392 1392 1392 1391 1391 1391 1390 1390 1390 1390 1390 1391 1392 1392 1393 1394 1394 1395 1395 1395 1396 1396 1396 1396 1396 1395 1395 1395 1395 1395
1394 1393 1393 1393 1393 1392 1392 1391 1391 1391 1391 1390 1390 1390 1389 1389 1389 1389 1389 1388 1388 1388 1388 1388 1389 1389 1390 1391 1391 1392 1393 1393 1394 1394 1394 1394 1394 1394 1395 1395 1394 1395 1395 1395
1391 1390 1390 1390 1389 1389 1388 1388 1388 1388 1387 1387 1387 1387 1387 1387 1386 1386 1386 1386 1386 1386 1386 1387 1387 1388 1389 1389 1390 1391 1391 1392 1392 1393 1393 1393 1393 1393 1393 1394 1394 1394 1394 1394
1388 1387 1387 1387 1387 1386 1386 1386 1385 1385 1385 1384 1384 1384 1384 1384 1384 1384 1384 1384 1384 1385 1385 1386 1386 1387 1387 1388 1389 1389 1390 1390 1391 1391 1392 1392 1392 1392 1392 1393 1393 1393 1393 1392
1385 1385 1384 1384 1384 1384 1384 1383 1383 1383 1383 1382 1382 1382 1382 1382 1382 1382 1382 1383 1383 1383 1384 1385 1385 1386 1386 1387 1388 1388 1389 1389 1390 1390 1390 1391 1391 1391 1391 1392 1392 1392 1391 1391